STARLINK-35687, 66524

Orbit data source: Space-Track

STARLINK-35687, 66524 is a payload satellite owned by SpaceX/Seattle (US) in LEO that was launched on Wed, 19 Nov 2025 UTC via an FALCON 9 launch vehicle from the Air Force Eastern Test Range (AFETR). Payload-class satellites include a variety of spacecraft equipped with specific instruments for various scientific and technological missions. These include communications satellites like Starlink; space stations such as the ISS; scientific satellites like the Hubble; Earth observation satellites from companies like Planet Labs, Umbra, and HawkEye 360; GPS; miniature CubeSats for education and research; and military/defense satellites.

Loading next visibility...
Identifier
66524, 2025-265J
Orbit
LEO
Country
Flag of USUS
Related business
Manufacturer
SpaceX/Seattle
Mission
Operational Commercial Communications
Bus & Motor
STARLINK V2MO, Unknown motor
Mass
575 kg wet, ~530 kg dry
Launch date (UTC)
2025-11-19 (7 months ago)
Launch vehicle
FALCON 9
Launch site
Air Force Eastern Test Range (AFETR)
Object type
Payload
Rocket body
Debris
Shape & HBR
Box + 2 Pan, 17.7 m
Radar Cross Section
36.964 m², Large (>1 m²)

Expand to show TLE details & history
Last TLE update: 18 hours ago

TLE from 18 hours ago
0 STARLINK-35687
1 66524U 25265J   26171.11503723  .00011109  00000-0  41238-3 0  9995
2 66524  42.9992  59.8799 0001141 272.3173  87.7548 15.27597221 32778
Epoch: 2026-06-20T02:45Z
TLE epoch observation values (Epoch: 2026-06-20T02:45:39.216Z)
Latitude
-0.00002°
Longitude
110.13218°
Altitude
482.742 km
Speed
7.626 km/s
True Right ascension
03h 59m 31s
True Declination
0° 00' 00"
Sunlit
Object was in daylight at epoch
Visualization orbit readout
Latitude
Unknown
Longitude
Unknown
Altitude
Unknown
Speed
Unknown
Apparent Right ascension
Unknown
Apparent Declination
Unknown
Sunlit
N/A
Visualization observer readout
Local Sidereal Time
07:13:08
Azimuth
Unknown
Elevation
Unknown
Doppler factor
Unknown
Orbital elements
Apogee altitude
485.726 km
Perigee altitude
484.16 km
Semi-major axis
6,863.08 km
Eccentricity
0.00011
Inclination
42.9992°
RAAN
59.8799°
Arg. of periapsis
272.3173°
True anomaly
87.76786°
Mean anomaly
87.7548°
Eccentric anomaly
87.76133°
Mean motion
3.81737 °/min
Orbital period
94.31 mins
BSTAR
0.00041238
Loading maneuver chart data...
Computing Atmospheric mass density...
Loading historical data...
Loading historical data...
Loading historical data...
Loading historical data...
Loading historical data...
Loading historical data...
Loading historical data...

Documentation

Showing up to 5 results
|